Estación de Illapel

Ultimos registro cada 15 minutos 76
Estación Fecha / Hora Temperatura Humedad Lluvia Velocidad Dirección Radiación Presion
76 Illapel 02-05-2026 18:45 14,7 55 0 1,8 294 0 1009
75 Illapel 02-05-2026 18:30 14,7 55 0 1,8 294 0 1009
74 Illapel 02-05-2026 18:15 15,6 52 0 0 289 0 1009
73 Illapel 02-05-2026 18:00 16,5 50 0 0,9 260 0 1009
72 Illapel 02-05-2026 17:45 18,6 45 0 0,9 246 14 1009
71 Illapel 02-05-2026 17:30 18,6 45 0 0,9 246 14 1009
70 Illapel 02-05-2026 17:15 19,5 43 0 2,2 231 18 1009
69 Illapel 02-05-2026 17:00 20,4 41 0 4 264 21 1009
68 Illapel 02-05-2026 16:45 22,3 37 0 3,1 221 241 1009
67 Illapel 02-05-2026 16:30 22,3 37 0 3,1 221 241 1009
66 Illapel 02-05-2026 16:15 22,7 36 0 2,7 278 283 1009
65 Illapel 02-05-2026 16:00 23,4 35 0 2,2 250 325 1009
64 Illapel 02-05-2026 15:45 24,7 32 0 2,7 304 408 1009
63 Illapel 02-05-2026 15:30 24,7 32 0 2,7 304 408 1009
62 Illapel 02-05-2026 15:15 25,2 32 0 2,2 239 443 1009
61 Illapel 02-05-2026 15:00 24,7 33 0 2,7 241 476 1009
60 Illapel 02-05-2026 14:45 24,9 33 0 1,8 262 536 1009
59 Illapel 02-05-2026 14:30 24,9 33 0 1,8 262 536 1009
58 Illapel 02-05-2026 14:15 25,4 30 0 2,2 261 564 1009
57 Illapel 02-05-2026 14:00 25,3 30 0 1,8 281 587 1009
56 Illapel 02-05-2026 13:45 26,5 28 0 0,9 242 624 1009
55 Illapel 02-05-2026 13:30 26,5 28 0 0,9 242 624 1009
54 Illapel 02-05-2026 13:15 27,5 25 0 0,9 262 44 1009
53 Illapel 02-05-2026 13:00 29 17 0 1,8 257 26 1009
52 Illapel 02-05-2026 12:45 28,6 14 0 1,3 354 25 1009
51 Illapel 02-05-2026 12:30 28,6 14 0 1,3 354 25 1009
50 Illapel 02-05-2026 12:15 27,8 17 0 1,3 350 25 1009
49 Illapel 02-05-2026 12:00 26,9 21 0 1,3 2 25 1009
48 Illapel 02-05-2026 11:45 25,7 23 0 0,9 46 25 1009
47 Illapel 02-05-2026 11:30 25,7 23 0 0,9 46 25 1009
46 Illapel 02-05-2026 11:15 24,6 24 0 0 62 33 1009
45 Illapel 02-05-2026 11:00 23,7 27 0 0 65 559 1009
44 Illapel 02-05-2026 10:45 21,9 29 0 0,4 65 285 1009
43 Illapel 02-05-2026 10:30 21,9 29 0 0,4 65 285 1009
42 Illapel 02-05-2026 10:15 20,8 33 0 0 135 468 1009
41 Illapel 02-05-2026 10:00 19,3 35 0 1,8 101 432 1009
40 Illapel 02-05-2026 09:45 16,9 45 0 0,9 137 350 1009
39 Illapel 02-05-2026 09:30 16,9 45 0 0,9 137 350 1009
38 Illapel 02-05-2026 09:15 16 47 0 1,8 136 308 920,5
37 Illapel 02-05-2026 09:00 14,3 52 0 0 135 264 920,5
36 Illapel 02-05-2026 08:45 11,4 55 0 0 88 77 920,5
35 Illapel 02-05-2026 08:30 11,4 55 0 0 88 77 920,5
34 Illapel 02-05-2026 08:15 10,2 57 0 0 125 121 920,5
33 Illapel 02-05-2026 08:00 9,1 59 0 0 127 72 920,5
32 Illapel 02-05-2026 07:45 8,9 58 0 0 108 5 920,5
31 Illapel 02-05-2026 07:30 8,9 58 0 0 108 5 920,5
30 Illapel 02-05-2026 07:15 9,1 58 0 0 138 0 920,5
29 Illapel 02-05-2026 07:00 9,3 58 0 0 135 0 920,5
28 Illapel 02-05-2026 06:45 8,9 61 0 0 122 0 920,5
27 Illapel 02-05-2026 06:30 8,9 61 0 0 122 0 920,5
26 Illapel 02-05-2026 06:15 8,8 60 0 0 152 0 920,5
25 Illapel 02-05-2026 06:00 8,9 60 0 0 141 0 920,5
24 Illapel 02-05-2026 05:45 9,5 58 0 0 151 0 920,5
23 Illapel 02-05-2026 05:30 9,5 58 0 0 151 0 920,5
22 Illapel 02-05-2026 05:15 10,3 56 0 0 151 0 920,5
21 Illapel 02-05-2026 05:00 10,6 58 0 0 154 0 920,5
20 Illapel 02-05-2026 04:45 10,2 58 0 0 150 0 920,5
19 Illapel 02-05-2026 04:30 10,2 58 0 0 150 0 920,5
18 Illapel 02-05-2026 04:15 10,3 57 0 0 163 0 922
17 Illapel 02-05-2026 04:00 10,7 58 0 0 156 0 920,4
16 Illapel 02-05-2026 03:45 10,3 59 0 0,4 127 0 936
15 Illapel 02-05-2026 03:30 10,3 59 0 0,4 127 0 936
14 Illapel 02-05-2026 03:15 10,2 58 0 1,3 185 0 949,4
13 Illapel 02-05-2026 03:00 10,6 59 0 0 82 0 953,3
12 Illapel 02-05-2026 02:45 10,6 59 0 0 144 0 953,8
11 Illapel 02-05-2026 02:30 10,6 59 0 0 144 0 953,8
10 Illapel 02-05-2026 02:15 10,7 59 0 0 102 0 951,7
9 Illapel 02-05-2026 02:00 10,9 60 0 0,4 142 0 949,8
8 Illapel 02-05-2026 01:45 10,3 62 0 0 148 0 1009,9
7 Illapel 02-05-2026 01:30 10,3 62 0 0 148 0 1009,9
6 Illapel 02-05-2026 01:15 10,2 62 0 0 119 0 1009,9
5 Illapel 02-05-2026 01:00 10,2 63 0 0 148 0 1009,9
4 Illapel 02-05-2026 00:45 10,7 62 0 0 150 0 1009,9
3 Illapel 02-05-2026 00:30 10,7 62 0 0 150 0 1009,9
2 Illapel 02-05-2026 00:15 10,8 62 0 0 133 0 1009,9
1 Illapel 02-05-2026 00:00 10,8 62 0 0 133 0 1009,9